| time (UTC) | temp F | wind direction | speed knots | gust knots | rain 1hr in | rain 24hr in | rain mn in | humidity % | barometer mb |
| 20260507202504 | 54 | 348 | 0.0 | 1.7 | 0.00 | 0.02 | 0.01 | 74 | 1015.9 |
| 20260507202005 | 54 | 347 | 0.9 | 3.5 | 0.00 | 0.02 | 0.01 | 72 | 1015.8 |
| 20260507201504 | 54 | 342 | 0.9 | 3.5 | 0.00 | 0.02 | 0.01 | 72 | 1015.7 |
| 20260507201215 | 54 | 318 | 0.9 | 2.6 | 0.00 | 0.02 | 0.01 | 73 | 1015.7 |
| 20260507200504 | 55 | 325 | 1.7 | 6.1 | 0.00 | 0.02 | 0.01 | 71 | 1015.5 |
| 20260507200216 | 55 | 327 | 1.7 | 6.1 | 0.00 | 0.02 | 0.01 | 71 | 1015.4 |
| 20260507195504 | 55 | 318 | 1.7 | 4.3 | 0.00 | 0.02 | 0.01 | 70 | 1015.2 |
| 20260507195006 | 55 | 307 | 0.9 | 3.5 | 0.00 | 0.02 | 0.01 | 70 | 1015.2 |
| 20260507194506 | 56 | 319 | 1.7 | 4.3 | 0.00 | 0.02 | 0.01 | 69 | 1015.1 |
| 20260507194004 | 56 | 327 | 1.7 | 4.3 | 0.00 | 0.02 | 0.01 | 69 | 1014.9 |
| 20260507193716 | 57 | 331 | 1.7 | 4.3 | 0.00 | 0.02 | 0.01 | 68 | 1014.8 |
| 20260507193004 | 57 | 344 | 0.9 | 5.2 | 0.00 | 0.02 | 0.01 | 66 | 1014.7 |
| 20260507192717 | 58 | 334 | 2.6 | 5.2 | 0.00 | 0.02 | 0.01 | 66 | 1014.6 |
| 20260507192004 | 59 | 324 | 3.5 | 6.1 | 0.00 | 0.03 | 0.01 | 64 | 1014.3 |
| 20260507191504 | 60 | 296 | 2.6 | 6.1 | 0.00 | 0.03 | 0.01 | 62 | 1014.1 |
| 20260507191004 | 60 | 292 | 1.7 | 6.1 | 0.00 | 0.03 | 0.01 | 60 | 1014.0 |
| 20260507190504 | 60 | 300 | 2.6 | 7.0 | 0.00 | 0.03 | 0.01 | 59 | 1013.9 |
| 20260507190217 | 61 | 279 | 2.6 | 8.7 | 0.00 | 0.03 | 0.01 | 58 | 1013.9 |
| 20260507185507 | 61 | 275 | 2.6 | 8.7 | 0.00 | 0.03 | 0.01 | 58 | 1013.7 |
| 20260507185004 | 61 | 270 | 2.6 | 9.6 | 0.00 | 0.03 | 0.01 | 58 | 1013.4 |
| 20260507184504 | 61 | 281 | 3.5 | 11.3 | 0.00 | 0.03 | 0.01 | 59 | 1013.3 |
| 20260507184004 | 61 | 279 | 4.3 | 11.3 | 0.00 | 0.03 | 0.01 | 58 | 1013.2 |
| 20260507183504 | 62 | 249 | 5.2 | 13.0 | 0.00 | 0.03 | 0.01 | 58 | 1013.0 |
| 20260507183220 | 62 | 245 | 6.1 | 15.6 | 0.00 | 0.03 | 0.01 | 58 | 1013.0 |
| 20260507182505 | 62 | 249 | 7.0 | 15.6 | 0.00 | 0.03 | 0.01 | 60 | 1012.9 |
| 20260507182004 | 62 | 246 | 7.0 | 16.5 | 0.00 | 0.03 | 0.01 | 63 | 1012.8 |
| 20260507181504 | 62 | 245 | 7.8 | 18.2 | 0.00 | 0.03 | 0.01 | 65 | 1012.8 |
| 20260507181217 | 62 | 246 | 7.8 | 18.2 | 0.00 | 0.03 | 0.01 | 66 | 1012.8 |
| 20260507180504 | 62 | 245 | 7.0 | 15.6 | 0.00 | 0.03 | 0.01 | 67 | 1012.8 |
| 20260507180006 | 63 | 247 | 7.0 | 16.5 | 0.00 | 0.03 | 0.01 | 67 | 1012.7 |
| 20260507175504 | 63 | 246 | 7.0 | 16.5 | 0.00 | 0.03 | 0.01 | 67 | 1012.7 |
| 20260507175006 | 63 | 245 | 7.0 | 14.8 | 0.00 | 0.03 | 0.01 | 67 | 1012.6 |
| 20260507174504 | 63 | 247 | 7.0 | 14.8 | 0.00 | 0.03 | 0.01 | 67 | 1012.4 |
| 20260507174004 | 64 | 258 | 7.0 | 14.8 | 0.00 | 0.03 | 0.01 | 66 | 1012.4 |
| 20260507173504 | 64 | 268 | 6.1 | 14.8 | 0.00 | 0.03 | 0.01 | 65 | 1012.5 |
| 20260507173005 | 64 | 278 | 5.2 | 16.5 | 0.00 | 0.03 | 0.01 | 66 | 1012.4 |
| 20260507172504 | 64 | 263 | 6.1 | 17.4 | 0.00 | 0.03 | 0.01 | 65 | 1012.3 |
| 20260507172006 | 64 | 254 | 6.1 | 17.4 | 0.00 | 0.03 | 0.01 | 64 | 1012.3 |
| 20260507171505 | 64 | 264 | 5.2 | 13.0 | 0.00 | 0.03 | 0.01 | 63 | 1012.3 |
| 20260507171217 | 64 | 274 | 5.2 | 18.2 | 0.00 | 0.03 | 0.01 | 62 | 1012.3 |
| 20260507170715 | 65 | 275 | 6.1 | 18.2 | 0.00 | 0.03 | 0.01 | 61 | 1012.3 |
| 20260507170218 | 65 | 276 | 5.2 | 14.8 | 0.00 | 0.03 | 0.01 | 61 | 1012.5 |
| 20260507165504 | 65 | 294 | 3.5 | 9.6 | 0.00 | 0.03 | 0.01 | 60 | 1012.4 |
| 20260507165006 | 65 | 287 | 3.5 | 9.6 | 0.00 | 0.03 | 0.01 | 60 | 1012.4 |
| 20260507164504 | 66 | 286 | 3.5 | 7.8 | 0.00 | 0.03 | 0.01 | 59 | 1012.4 |
| 20260507164004 | 66 | 306 | 4.3 | 9.6 | 0.00 | 0.03 | 0.01 | 58 | 1012.3 |
| 20260507163506 | 66 | 293 | 4.3 | 10.4 | 0.00 | 0.03 | 0.01 | 61 | 1012.4 |
| 20260507163005 | 66 | 284 | 4.3 | 10.4 | 0.00 | 0.03 | 0.01 | 59 | 1012.3 |
| 20260507162504 | 66 | 302 | 4.3 | 9.6 | 0.00 | 0.03 | 0.01 | 60 | 1012.1 |
| 20260507162007 | 66 | 316 | 3.5 | 9.6 | 0.00 | 0.03 | 0.01 | 66 | 1012.1 |
| 20260507161506 | 66 | 311 | 2.6 | 7.0 | 0.00 | 0.03 | 0.01 | 66 | 1012.1 |
| 20260507161004 | 66 | 318 | 1.7 | 7.0 | 0.00 | 0.03 | 0.01 | 66 | 1012.2 |
| 20260507160716 | 65 | 330 | 1.7 | 5.2 | 0.00 | 0.03 | 0.01 | 68 | 1012.1 |
| 20260507160005 | 66 | 294 | 1.7 | 4.3 | 0.00 | 0.03 | 0.01 | 67 | 1012.0 |
| 20260507155504 | 66 | 294 | 1.7 | 4.3 | 0.00 | 0.03 | 0.01 | 66 | 1012.1 |
| 20260507155220 | 66 | 295 | 1.7 | 3.5 | 0.00 | 0.03 | 0.01 | 66 | 1012.1 |
| 20260507154718 | 66 | 276 | 1.7 | 6.1 | 0.00 | 0.03 | 0.01 | 65 | 1012.0 |
| 20260507154005 | 67 | 305 | 2.6 | 7.8 | 0.00 | 0.03 | 0.01 | 65 | 1011.7 |
| 20260507153506 | 67 | 324 | 3.5 | 7.8 | 0.00 | 0.03 | 0.01 | 66 | 1011.8 |
| 20260507153217 | 66 | 324 | 3.5 | 7.8 | 0.00 | 0.03 | 0.01 | 65 | 1011.8 |
| 20260507152504 | 66 | 307 | 0.9 | 6.1 | 0.00 | 0.03 | 0.01 | 70 | 1011.9 |
| 20260507152218 | 66 | 316 | 1.7 | 3.5 | 0.00 | 0.03 | 0.01 | 71 | 1012.0 |
| 20260507151504 | 66 | 339 | 3.5 | 7.0 | 0.00 | 0.03 | 0.01 | 67 | 1011.7 |
| 20260507151005 | 66 | 333 | 2.6 | 7.0 | 0.00 | 0.03 | 0.01 | 67 | 1011.8 |
| 20260507150504 | 66 | 303 | 0.9 | 4.3 | 0.00 | 0.03 | 0.01 | 68 | 1011.8 |
| 20260507150219 | 66 | 301 | 0.9 | 4.3 | 0.00 | 0.03 | 0.01 | 68 | 1011.8 |
| 20260507145504 | 66 | 325 | 1.7 | 6.1 | 0.00 | 0.03 | 0.01 | 66 | 1011.9 |
| 20260507145004 | 66 | 322 | 0.9 | 4.3 | 0.00 | 0.03 | 0.01 | 66 | 1011.9 |
| 20260507144504 | 67 | 317 | 0.9 | 3.5 | 0.00 | 0.03 | 0.01 | 66 | 1011.8 |
| 20260507144006 | 67 | 14 | 1.7 | 4.3 | 0.00 | 0.03 | 0.01 | 65 | 1011.8 |
| 20260507143504 | 67 | 357 | 2.6 | 5.2 | 0.00 | 0.03 | 0.01 | 65 | 1011.8 |
| 20260507143006 | 66 | 308 | 1.7 | 5.2 | 0.00 | 0.03 | 0.01 | 66 | 1011.8 |
| 20260507142504 | 66 | 293 | 1.7 | 6.1 | 0.00 | 0.03 | 0.01 | 65 | 1011.9 |
| 20260507142004 | 66 | 300 | 1.7 | 6.1 | 0.00 | 0.03 | 0.01 | 65 | 1011.8 |
| 20260507141716 | 67 | 278 | 1.7 | 4.3 | 0.00 | 0.03 | 0.01 | 64 | 1011.8 |
| 20260507141004 | 67 | 291 | 1.7 | 7.0 | 0.00 | 0.03 | 0.01 | 65 | 1012.0 |
| 20260507140504 | 67 | 298 | 1.7 | 6.1 | 0.00 | 0.03 | 0.01 | 65 | 1011.7 |
| 20260507140006 | 68 | 301 | 2.6 | 7.8 | 0.00 | 0.03 | 0.01 | 65 | 1012.0 |
| 20260507135504 | 67 | 297 | 3.5 | 7.8 | 0.00 | 0.03 | 0.01 | 63 | 1012.0 |
| 20260507135005 | 68 | 288 | 2.6 | 8.7 | 0.00 | 0.03 | 0.01 | 63 | 1011.9 |
| 20260507134504 | 68 | 296 | 2.6 | 8.7 | 0.00 | 0.03 | 0.01 | 62 | 1012.0 |
| 20260507134004 | 67 | 296 | 2.6 | 7.0 | 0.00 | 0.03 | 0.01 | 65 | 1011.9 |
| 20260507133504 | 67 | 273 | 1.7 | 7.0 | 0.00 | 0.03 | 0.01 | 65 | 1012.1 |
| 20260507133006 | 67 | 286 | 1.7 | 6.1 | 0.00 | 0.03 | 0.01 | 66 | 1012.0 |
| 20260507132716 | 67 | 302 | 1.7 | 6.1 | 0.00 | 0.03 | 0.01 | 68 | 1012.0 |
| 20260507132004 | 68 | 317 | 1.7 | 5.2 | 0.00 | 0.03 | 0.01 | 65 | 1012.1 |
| 20260507131717 | 68 | 303 | 1.7 | 5.2 | 0.00 | 0.03 | 0.01 | 64 | 1012.2 |
| 20260507131006 | 69 | 319 | 2.6 | 5.2 | 0.00 | 0.03 | 0.01 | 61 | 1012.3 |
| 20260507130504 | 69 | 308 | 2.6 | 8.7 | 0.00 | 0.03 | 0.01 | 63 | 1012.3 |
| 20260507130008 | 69 | 297 | 2.6 | 8.7 | 0.00 | 0.03 | 0.01 | 61 | 1012.3 |
| 20260507125504 | 69 | 300 | 1.7 | 5.2 | 0.00 | 0.03 | 0.01 | 62 | 1012.3 |
| 20260507125217 | 69 | 321 | 1.7 | 4.3 | 0.00 | 0.03 | 0.01 | 62 | 1012.3 |
| 20260507124504 | 68 | 309 | 1.7 | 6.1 | 0.00 | 0.03 | 0.01 | 58 | 1012.3 |
| 20260507124004 | 68 | 273 | 1.7 | 6.1 | 0.00 | 0.03 | 0.01 | 57 | 1012.4 |
| 20260507123504 | 68 | 295 | 1.7 | 5.2 | 0.00 | 0.03 | 0.01 | 56 | 1012.5 |
| 20260507123004 | 68 | 321 | 1.7 | 5.2 | 0.00 | 0.03 | 0.01 | 56 | 1012.4 |
| 20260507122716 | 68 | 334 | 0.9 | 4.3 | 0.00 | 0.03 | 0.01 | 59 | 1012.5 |
| 20260507122005 | 67 | 282 | 0.9 | 3.5 | 0.00 | 0.03 | 0.01 | 55 | 1012.5 |
| 20260507121504 | 67 | 228 | 0.9 | 3.5 | 0.00 | 0.03 | 0.01 | 55 | 1012.7 |
| 20260507121004 | 67 | 185 | 0.9 | 3.5 | 0.00 | 0.03 | 0.01 | 59 | 1012.8 |
| 20260507120504 | 67 | 190 | 0.9 | 4.3 | 0.00 | 0.03 | 0.01 | 60 | 1012.8 |
| 20260507120006 | 67 | 214 | 0.9 | 4.3 | 0.00 | 0.03 | 0.01 | 58 | 1012.9 |
| 20260507115504 | 67 | 269 | 1.7 | 4.3 | 0.00 | 0.03 | 0.01 | 61 | 1013.0 |
| 20260507115217 | 66 | 273 | 1.7 | 6.1 | 0.00 | 0.03 | 0.01 | 61 | 1013.0 |
| 20260507114504 | 66 | 259 | 2.6 | 6.1 | 0.00 | 0.03 | 0.01 | 57 | 1013.0 |
| 20260507114004 | 67 | 263 | 2.6 | 7.0 | 0.00 | 0.03 | 0.01 | 58 | 1013.1 |
| 20260507113505 | 67 | 279 | 2.6 | 7.0 | 0.00 | 0.04 | 0.01 | 58 | 1013.0 |
| 20260507113006 | 67 | 315 | 2.6 | 7.0 | 0.00 | 0.04 | 0.01 | 59 | 1013.1 |
| 20260507112504 | 67 | 314 | 2.6 | 7.0 | 0.00 | 0.04 | 0.01 | 60 | 1013.0 |
| 20260507112004 | 68 | 289 | 2.6 | 7.0 | 0.00 | 0.04 | 0.01 | 56 | 1013.0 |
| 20260507111506 | 68 | 278 | 2.6 | 7.0 | 0.00 | 0.04 | 0.01 | 58 | 1013.2 |
| 20260507111006 | 68 | 261 | 2.6 | 6.1 | 0.00 | 0.04 | 0.01 | 60 | 1013.2 |
| 20260507110504 | 67 | 270 | 2.6 | 6.1 | 0.00 | 0.04 | 0.01 | 58 | 1013.1 |
| 20260507110005 | 68 | 256 | 3.5 | 8.7 | 0.00 | 0.04 | 0.01 | 59 | 1013.1 |
| 20260507105507 | 67 | 251 | 4.3 | 8.7 | 0.00 | 0.04 | 0.01 | 57 | 1013.1 |
| 20260507105004 | 68 | 273 | 3.5 | 7.8 | 0.00 | 0.04 | 0.01 | 57 | 1013.1 |
| 20260507104716 | 68 | 268 | 2.6 | 7.8 | 0.00 | 0.04 | 0.01 | 57 | 1013.0 |
| 20260507104004 | 68 | 292 | 1.7 | 5.2 | 0.00 | 0.04 | 0.01 | 61 | 1013.1 |
| 20260507103504 | 67 | 275 | 1.7 | 6.1 | 0.00 | 0.04 | 0.01 | 58 | 1013.2 |
| 20260507103006 | 67 | 280 | 1.7 | 6.1 | 0.00 | 0.04 | 0.01 | 63 | 1013.2 |
| 20260507102718 | 67 | 295 | 2.6 | 9.6 | 0.00 | 0.04 | 0.01 | 63 | 1013.2 |
| 20260507102006 | 66 | 299 | 3.5 | 9.6 | 0.00 | 0.04 | 0.01 | 61 | 1013.4 |
| 20260507101504 | 66 | 305 | 3.5 | 8.7 | 0.00 | 0.04 | 0.01 | 61 | 1013.5 |
| 20260507101006 | 67 | 262 | 1.7 | 8.7 | 0.00 | 0.04 | 0.01 | 64 | 1013.5 |
| 20260507100504 | 67 | 223 | 1.7 | 4.3 | 0.00 | 0.04 | 0.01 | 62 | 1013.6 |
| 20260507100007 | 67 | 242 | 0.9 | 3.5 | 0.00 | 0.04 | 0.01 | 66 | 1013.6 |
| 20260507095504 | 66 | 249 | 0.9 | 5.2 | 0.00 | 0.04 | 0.01 | 69 | 1013.7 |
| 20260507095004 | 65 | 254 | 0.9 | 5.2 | 0.00 | 0.05 | 0.01 | 65 | 1013.8 |
| 20260507094504 | 65 | 268 | 0.9 | 3.5 | 0.00 | 0.05 | 0.01 | 67 | 1013.7 |
| 20260507094004 | 65 | 240 | 1.7 | 7.8 | 0.00 | 0.05 | 0.01 | 68 | 1013.9 |
| 20260507093717 | 65 | 246 | 1.7 | 7.8 | 0.00 | 0.05 | 0.01 | 66 | 1013.9 |
| 20260507093006 | 65 | 266 | 2.6 | 7.8 | 0.00 | 0.05 | 0.01 | 67 | 1013.9 |
| 20260507092504 | 66 | 252 | 1.7 | 7.0 | 0.00 | 0.05 | 0.01 | 68 | 1013.9 |
| 20260507092216 | 66 | 266 | 2.6 | 7.0 | 0.00 | 0.05 | 0.01 | 68 | 1013.9 |
| 20260507091504 | 65 | 293 | 2.6 | 8.7 | 0.00 | 0.05 | 0.01 | 69 | 1013.8 |
| 20260507091217 | 65 | 275 | 2.6 | 8.7 | 0.00 | 0.05 | 0.01 | 70 | 1013.8 |
| 20260507090503 | 65 | 300 | 2.6 | 7.8 | 0.00 | 0.05 | 0.01 | 68 | 1013.8 |
| 20260507090007 | 65 | 309 | 2.6 | 6.1 | 0.00 | 0.05 | 0.01 | 69 | 1013.7 |
| 20260507085506 | 64 | 317 | 1.7 | 6.1 | 0.00 | 0.05 | 0.01 | 74 | 1013.8 |
| 20260507085004 | 64 | 270 | 1.7 | 8.7 | 0.00 | 0.05 | 0.01 | 75 | 1013.7 |
| 20260507084504 | 63 | 202 | 2.6 | 8.7 | 0.00 | 0.05 | 0.01 | 75 | 1013.8 |
| 20260507084004 | 63 | 333 | 3.5 | 8.7 | 0.00 | 0.05 | 0.01 | 75 | 1013.7 |
| 20260507083504 | 62 | 315 | 2.6 | 7.0 | 0.00 | 0.05 | 0.01 | 77 | 1013.7 |
| 20260507083005 | 62 | 274 | 2.6 | 7.8 | 0.00 | 0.05 | 0.01 | 76 | 1013.9 |
| 20260507082714 | 62 | 290 | 2.6 | 7.8 | 0.00 | 0.05 | 0.01 | 77 | 1013.7 |
| 20260507082006 | 61 | 301 | 2.6 | 6.1 | 0.00 | 0.05 | 0.01 | 79 | 1013.8 |
| 20260507081504 | 61 | 297 | 1.7 | 6.1 | 0.00 | 0.05 | 0.01 | 79 | 1013.7 |
| 20260507081004 | 61 | 298 | 1.7 | 6.1 | 0.00 | 0.05 | 0.01 | 78 | 1013.6 |
| 20260507080504 | 60 | 304 | 0.9 | 4.3 | 0.00 | 0.05 | 0.01 | 80 | 1013.6 |
| 20260507080219 | 60 | 307 | 0.9 | 2.6 | 0.00 | 0.05 | 0.01 | 79 | 1013.6 |
| 20260507075504 | 60 | 303 | 0.9 | 2.6 | 0.00 | 0.05 | 0.01 | 80 | 1013.5 |
| 20260507075005 | 60 | 275 | 0.9 | 3.5 | 0.00 | 0.05 | 0.01 | 80 | 1013.4 |
| 20260507074718 | 60 | 277 | 0.9 | 3.5 | 0.00 | 0.05 | 0.01 | 81 | 1013.5 |
| 20260507074216 | 59 | 253 | 1.7 | 4.3 | 0.00 | 0.05 | 0.01 | 82 | 1013.4 |
| 20260507073713 | 59 | 257 | 1.7 | 5.2 | 0.00 | 0.05 | 0.01 | 82 | 1013.5 |
| 20260507073004 | 58 | 259 | 1.7 | 7.0 | 0.00 | 0.05 | 0.01 | 82 | 1013.4 |
| 20260507072506 | 58 | 253 | 1.7 | 7.0 | 0.00 | 0.05 | 0.01 | 81 | 1013.5 |
| 20260507072004 | 58 | 240 | 1.7 | 5.2 | 0.00 | 0.05 | 0.01 | 81 | 1013.4 |
| 20260507071504 | 58 | 239 | 2.6 | 5.2 | 0.00 | 0.05 | 0.01 | 81 | 1013.3 |
| 20260507071005 | 58 | 248 | 1.7 | 4.3 | 0.00 | 0.05 | 0.01 | 82 | 1013.2 |
| 20260507070505 | 58 | 254 | 1.7 | 5.2 | 0.00 | 0.06 | 0.01 | 82 | 1013.3 |
| 20260507070010 | 58 | 256 | 1.7 | 5.2 | 0.00 | 0.08 | 0.01 | 82 | 1013.3 |
| 20260507065505 | 58 | 245 | 2.6 | 7.0 | 0.00 | 0.08 | 0.01 | 82 | 1013.3 |
| 20260507065005 | 58 | 245 | 3.5 | 7.0 | 0.00 | 0.08 | 0.01 | 82 | 1013.2 |
| 20260507064504 | 58 | 249 | 2.6 | 6.1 | 0.00 | 0.08 | 0.01 | 81 | 1013.3 |
| 20260507064216 | 58 | 243 | 2.6 | 6.1 | 0.00 | 0.08 | 0.01 | 82 | 1013.2 |
| 20260507063504 | 58 | 232 | 1.7 | 5.2 | 0.00 | 0.08 | 0.01 | 83 | 1013.0 |
| 20260507063004 | 58 | 231 | 1.7 | 5.2 | 0.00 | 0.08 | 0.01 | 83 | 1013.0 |
| 20260507062506 | 57 | 228 | 1.7 | 6.1 | 0.00 | 0.08 | 0.01 | 84 | 1013.1 |
| 20260507062004 | 57 | 217 | 1.7 | 6.1 | 0.00 | 0.08 | 0.01 | 85 | 1012.9 |
| 20260507061504 | 56 | 92 | 0.9 | 4.3 | 0.00 | 0.08 | 0.01 | 88 | 1013.0 |
| 20260507061004 | 56 | 112 | 0.9 | 3.5 | 0.00 | 0.08 | 0.01 | 89 | 1012.9 |
| 20260507060504 | 56 | 141 | 0.9 | 3.5 | 0.00 | 0.08 | 0.01 | 90 | 1013.0 |
| 20260507060005 | 56 | 237 | 0.0 | 1.7 | 0.00 | 0.08 | 0.01 | 89 | 1013.0 |
| 20260507055504 | 56 | 131 | 0.0 | 0.9 | 0.00 | 0.08 | 0.01 | 89 | 1012.9 |
| 20260507055005 | 56 | 135 | 0.0 | 1.7 | 0.00 | 0.08 | 0.01 | 89 | 1013.1 |
| 20260507054504 | 56 | 314 | 0.9 | 4.3 | 0.00 | 0.08 | 0.01 | 89 | 1013.0 |
| 20260507054006 | 55 | 313 | 0.9 | 4.3 | 0.00 | 0.08 | 0.01 | 89 | 1012.9 |
| 20260507053504 | 55 | 311 | 0.9 | 4.3 | 0.00 | 0.08 | 0.01 | 91 | 1012.7 |
| 20260507053005 | 55 | 340 | 0.0 | 1.7 | 0.00 | 0.08 | 0.01 | 90 | 1012.8 |
| 20260507052505 | 55 | 314 | 0.9 | 2.6 | 0.00 | 0.08 | 0.01 | 90 | 1012.7 |
| 20260507052004 | 55 | 310 | 0.9 | 3.5 | 0.00 | 0.08 | 0.01 | 90 | 1012.7 |
| 20260507051506 | 54 | 309 | 0.9 | 3.5 | 0.00 | 0.08 | 0.01 | 91 | 1012.7 |
| 20260507051004 | 54 | 0 | 0.0 | 0.0 | 0.00 | 0.08 | 0.01 | 91 | 1012.7 |
| 20260507050504 | 54 | 0 | 0.0 | 0.0 | 0.00 | 0.08 | 0.01 | 91 | 1012.6 |
| 20260507050008 | 54 | 302 | 0.9 | 3.5 | 0.00 | 0.08 | 0.01 | 91 | 1012.5 |
| 20260507045504 | 54 | 315 | 0.9 | 4.3 | 0.00 | 0.08 | 0.01 | 91 | 1012.5 |
| 20260507045004 | 53 | 326 | 0.9 | 4.3 | 0.00 | 0.08 | 0.01 | 92 | 1012.4 |
| 20260507044504 | 53 | 0 | 0.0 | 0.0 | 0.00 | 0.08 | 0.01 | 92 | 1012.4 |
| 20260507044004 | 53 | 343 | 0.0 | 0.9 | 0.00 | 0.08 | 0.01 | 92 | 1012.4 |
| 20260507043504 | 53 | 352 | 0.0 | 0.9 | 0.00 | 0.08 | 0.01 | 92 | 1012.2 |
| 20260507043006 | 53 | 81 | 0.0 | 1.7 | 0.00 | 0.08 | 0.01 | 91 | 1012.3 |
| 20260507042504 | 53 | 84 | 0.0 | 1.7 | 0.00 | 0.08 | 0.01 | 92 | 1012.1 |
| 20260507042004 | 53 | 89 | 0.0 | 0.9 | 0.00 | 0.08 | 0.01 | 91 | 1012.1 |
| 20260507041504 | 54 | 325 | 0.9 | 2.6 | 0.00 | 0.08 | 0.01 | 91 | 1012.1 |
| 20260507041004 | 54 | 325 | 0.9 | 2.6 | 0.00 | 0.08 | 0.01 | 91 | 1012.0 |
| 20260507040504 | 54 | 324 | 0.0 | 2.6 | 0.00 | 0.08 | 0.01 | 91 | 1012.0 |
| 20260507040216 | 54 | 318 | 0.0 | 1.7 | 0.00 | 0.08 | 0.01 | 91 | 1012.1 |
| 20260507035504 | 54 | 322 | 0.9 | 3.5 | 0.00 | 0.08 | 0.01 | 90 | 1012.0 |
| 20260507035004 | 54 | 326 | 1.7 | 3.5 | 0.00 | 0.08 | 0.01 | 90 | 1012.1 |
| 20260507034504 | 54 | 338 | 0.9 | 3.5 | 0.00 | 0.08 | 0.01 | 90 | 1012.0 |
| 20260507034004 | 54 | 90 | 0.0 | 1.7 | 0.00 | 0.08 | 0.01 | 90 | 1012.0 |
| 20260507033504 | 54 | 16 | 0.9 | 1.7 | 0.00 | 0.08 | 0.01 | 90 | 1012.1 |
| 20260507033005 | 54 | 13 | 0.9 | 1.7 | 0.00 | 0.08 | 0.01 | 90 | 1012.1 |
| 20260507032717 | 54 | 25 | 0.9 | 1.7 | 0.00 | 0.08 | 0.01 | 90 | 1012.0 |
| 20260507032005 | 54 | 347 | 1.7 | 3.5 | 0.00 | 0.08 | 0.01 | 90 | 1011.9 |
| 20260507031504 | 54 | 351 | 1.7 | 3.5 | 0.00 | 0.08 | 0.01 | 90 | 1012.0 |
| 20260507031006 | 55 | 3 | 0.9 | 1.7 | 0.00 | 0.08 | 0.01 | 89 | 1011.9 |
| 20260507030504 | 55 | 38 | 0.9 | 2.6 | 0.00 | 0.08 | 0.01 | 89 | 1011.8 |
| 20260507030004 | 55 | 159 | 1.7 | 5.2 | 0.00 | 0.08 | 0.01 | 89 | 1011.8 |
| 20260507025506 | 55 | 152 | 1.7 | 5.2 | 0.00 | 0.08 | 0.01 | 89 | 1011.9 |
| 20260507025004 | 54 | 344 | 0.9 | 4.3 | 0.00 | 0.08 | 0.01 | 90 | 1011.8 |
| 20260507024505 | 54 | 318 | 1.7 | 4.3 | 0.00 | 0.08 | 0.01 | 89 | 1011.8 |
| 20260507024004 | 54 | 305 | 0.9 | 4.3 | 0.00 | 0.08 | 0.01 | 90 | 1011.8 |
| 20260507023504 | 54 | 146 | 0.9 | 4.3 | 0.00 | 0.08 | 0.01 | 90 | 1012.0 |
| 20260507023215 | 54 | 112 | 0.9 | 4.3 | 0.00 | 0.08 | 0.01 | 90 | 1011.9 |
| 20260507022504 | 54 | 11 | 0.9 | 1.7 | 0.00 | 0.08 | 0.01 | 90 | 1011.9 |
| 20260507022005 | 54 | 330 | 0.9 | 2.6 | 0.00 | 0.08 | 0.01 | 90 | 1011.9 |
| 20260507021504 | 54 | 2 | 0.9 | 2.6 | 0.00 | 0.08 | 0.01 | 90 | 1011.9 |
| 20260507021004 | 54 | 39 | 0.0 | 0.9 | 0.00 | 0.08 | 0.01 | 89 | 1011.9 |
| 20260507020504 | 54 | 287 | 0.0 | 0.9 | 0.00 | 0.08 | 0.01 | 90 | 1011.9 |
| 20260507020006 | 54 | 117 | 0.0 | 1.7 | 0.00 | 0.08 | 0.01 | 89 | 1011.9 |
| 20260507015504 | 54 | 23 | 0.0 | 1.7 | 0.00 | 0.08 | 0.01 | 89 | 1012.0 |
| 20260507015004 | 55 | 337 | 0.0 | 0.9 | 0.00 | 0.08 | 0.01 | 88 | 1012.1 |
| 20260507014504 | 55 | 23 | 0.0 | 2.6 | 0.00 | 0.08 | 0.01 | 87 | 1012.0 |
| 20260507014006 | 55 | 311 | 0.9 | 2.6 | 0.00 | 0.08 | 0.01 | 86 | 1011.9 |
| 20260507013504 | 56 | 303 | 0.9 | 6.1 | 0.00 | 0.08 | 0.01 | 86 | 1011.8 |
| 20260507013004 | 56 | 299 | 1.7 | 6.1 | 0.00 | 0.08 | 0.01 | 86 | 1011.9 |
| 20260507012504 | 56 | 228 | 2.6 | 11.3 | 0.00 | 0.08 | 0.01 | 86 | 1011.9 |
| 20260507012006 | 56 | 188 | 2.6 | 11.3 | 0.00 | 0.08 | 0.01 | 86 | 1011.8 |
| 20260507011504 | 56 | 182 | 2.6 | 7.8 | 0.00 | 0.08 | 0.01 | 86 | 1011.8 |
| 20260507011004 | 55 | 118 | 1.7 | 7.8 | 0.00 | 0.08 | 0.01 | 86 | 1011.8 |
| 20260507010504 | 55 | 118 | 0.9 | 3.5 | 0.00 | 0.08 | 0.01 | 86 | 1011.7 |
| 20260507010005 | 56 | 120 | 0.9 | 3.5 | 0.00 | 0.08 | 0.01 | 85 | 1011.7 |
| 20260507005504 | 55 | 100 | 0.9 | 2.6 | 0.00 | 0.08 | 0.01 | 87 | 1011.7 |
| 20260507005006 | 55 | 335 | 0.9 | 3.5 | 0.00 | 0.08 | 0.01 | 88 | 1011.9 |
| 20260507004504 | 56 | 349 | 0.9 | 3.5 | 0.00 | 0.08 | 0.01 | 87 | 1011.9 |
| 20260507004006 | 56 | 145 | 0.9 | 2.6 | 0.00 | 0.08 | 0.01 | 86 | 1012.0 |
| 20260507003504 | 56 | 124 | 0.9 | 2.6 | 0.00 | 0.08 | 0.01 | 85 | 1012.1 |
| 20260507003004 | 56 | 342 | 0.9 | 2.6 | 0.00 | 0.08 | 0.01 | 85 | 1012.1 |
| 20260507002504 | 56 | 287 | 1.7 | 7.8 | 0.01 | 0.08 | 0.01 | 85 | 1012.1 |
| 20260507002004 | 56 | 287 | 1.7 | 7.8 | 0.01 | 0.08 | 0.01 | 85 | 1012.2 |
| 20260507001715 | 56 | 288 | 0.9 | 7.8 | 0.01 | 0.08 | 0.01 | 86 | 1012.3 |
| 20260507001006 | 56 | 330 | 0.9 | 2.6 | 0.01 | 0.08 | 0.01 | 88 | 1012.3 |
| 20260507000504 | 56 | 315 | 0.9 | 3.5 | 0.01 | 0.08 | 0.01 | 87 | 1012.2 |
| 20260507000005 | 56 | 304 | 0.9 | 3.5 | 0.01 | 0.08 | 0.01 | 87 | 1012.2 |
| 20260506235504 | 56 | 329 | 1.7 | 5.2 | 0.01 | 0.08 | 0.01 | 88 | 1012.1 |
| 20260506235215 | 56 | 324 | 1.7 | 5.2 | 0.01 | 0.08 | 0.01 | 88 | 1012.2 |
| 20260506234506 | 56 | 276 | 0.9 | 4.3 | 0.01 | 0.08 | 0.01 | 88 | 1012.1 |
| 20260506234004 | 56 | 316 | 0.9 | 4.3 | 0.01 | 0.08 | 0.01 | 86 | 1011.9 |
| 20260506233504 | 56 | 312 | 1.7 | 7.0 | 0.01 | 0.08 | 0.01 | 86 | 1011.9 |
| 20260506233004 | 57 | 289 | 1.7 | 7.0 | 0.01 | 0.08 | 0.01 | 85 | 1012.2 |
| 20260506232504 | 57 | 274 | 1.7 | 5.2 | 0.00 | 0.07 | 0.00 | 85 | 1012.3 |
| 20260506232004 | 57 | 278 | 2.6 | 7.0 | 0.00 | 0.07 | 0.00 | 85 | 1012.2 |
| 20260506231504 | 57 | 274 | 2.6 | 8.7 | 0.00 | 0.07 | 0.00 | 84 | 1012.2 |
| 20260506231005 | 57 | 299 | 2.6 | 10.4 | 0.00 | 0.07 | 0.00 | 85 | 1012.4 |
| 20260506230506 | 57 | 309 | 2.6 | 10.4 | 0.00 | 0.07 | 0.00 | 85 | 1012.5 |
| 20260506230004 | 57 | 321 | 2.6 | 8.7 | 0.00 | 0.07 | 0.00 | 85 | 1012.3 |
| 20260506225504 | 57 | 40 | 1.7 | 8.7 | 0.00 | 0.07 | 0.00 | 86 | 1012.2 |
| 20260506225007 | 57 | 139 | 0.9 | 2.6 | 0.00 | 0.07 | 0.00 | 87 | 1012.1 |
| 20260506224505 | 56 | 162 | 0.9 | 2.6 | 0.00 | 0.07 | 0.00 | 89 | 1012.1 |
| 20260506224004 | 57 | 81 | 0.9 | 4.3 | 0.00 | 0.07 | 0.00 | 88 | 1012.0 |
| 20260506223504 | 57 | 27 | 0.9 | 4.3 | 0.00 | 0.07 | 0.00 | 88 | 1012.0 |
| 20260506223004 | 57 | 320 | 1.7 | 7.8 | 0.00 | 0.07 | 0.00 | 88 | 1011.9 |
| 20260506222504 | 57 | 321 | 0.9 | 7.8 | 0.00 | 0.07 | 0.00 | 88 | 1011.9 |
| 20260506222004 | 57 | 7 | 0.0 | 4.3 | 0.00 | 0.07 | 0.00 | 89 | 1011.8 |
| 20260506221504 | 57 | 353 | 0.9 | 4.3 | 0.00 | 0.07 | 0.00 | 88 | 1011.7 |
| 20260506221004 | 57 | 335 | 0.9 | 2.6 | 0.00 | 0.07 | 0.00 | 88 | 1011.7 |
| 20260506220808 | 57 | 333 | 0.9 | 2.6 | 0.00 | 0.07 | 0.00 | 88 | 1011.7 |
| 20260506220504 | 57 | 308 | 0.9 | 3.5 | 0.00 | 0.07 | 0.00 | 88 | 1011.6 |
| 20260506215504 | 57 | 358 | 0.9 | 4.3 | 0.00 | 0.07 | 0.07 | 87 | 1011.6 |
| 20260506215004 | 57 | 8 | 0.9 | 2.6 | 0.01 | 0.07 | 0.07 | 87 | 1011.7 |
| 20260506214504 | 57 | 355 | 0.9 | 1.7 | 0.01 | 0.07 | 0.07 | 88 | 1011.7 |
| 20260506214004 | 57 | 256 | 0.9 | 5.2 | 0.01 | 0.07 | 0.07 | 87 | 1011.7 |
| 20260506213504 | 58 | 309 | 2.6 | 11.3 | 0.01 | 0.07 | 0.07 | 85 | 1011.6 |
| 20260506213218 | 58 | 318 | 3.5 | 11.3 | 0.01 | 0.07 | 0.07 | 85 | 1011.5 |
| 20260506212505 | 58 | 299 | 3.5 | 8.7 | 0.01 | 0.07 | 0.07 | 85 | 1011.4 |
| 20260506212004 | 58 | 282 | 3.5 | 7.8 | 0.01 | 0.07 | 0.07 | 85 | 1011.5 |
| 20260506211504 | 58 | 276 | 1.7 | 7.0 | 0.01 | 0.07 | 0.07 | 87 | 1011.6 |
| 20260506211006 | 58 | 246 | 1.7 | 7.0 | 0.01 | 0.07 | 0.07 | 87 | 1011.5 |
| 20260506210504 | 58 | 267 | 1.7 | 7.0 | 0.01 | 0.07 | 0.07 | 86 | 1011.6 |
| 20260506210006 | 58 | 292 | 1.7 | 5.2 | 0.01 | 0.07 | 0.07 | 87 | 1011.4 |
| 20260506205504 | 59 | 263 | 1.7 | 6.1 | 0.01 | 0.07 | 0.07 | 86 | 1011.6 |
| 20260506205004 | 59 | 295 | 2.6 | 10.4 | 0.00 | 0.06 | 0.06 | 86 | 1011.5 |
| 20260506204504 | 59 | 304 | 3.5 | 12.2 | 0.00 | 0.06 | 0.06 | 85 | 1011.5 |
| 20260506204006 | 59 | 302 | 3.5 | 12.2 | 0.00 | 0.06 | 0.06 | 85 | 1011.2 |
| 20260506203506 | 58 | 304 | 2.6 | 9.6 | 0.00 | 0.06 | 0.06 | 86 | 1011.2 |
| 20260506203004 | 58 | 302 | 1.7 | 8.7 | 0.01 | 0.06 | 0.06 | 88 | 1011.1 |